Showing default

CYGFM05, 41884

Orbit data source: Space-Track

CYGFM05, 41884 is an American payload satellite in LEO that was launched on Thu, 15 Dec 2016 UTC via a PEGASUS XL launch vehicle from the Pegasus Launch, Eastern Range Air Space (ERAS). Payload-class satellites include a variety of spacecraft equipped with specific instruments for various scientific and technological missions. These include communications satellites like Starlink; space stations such as the ISS; scientific satellites like the Hubble; Earth observation satellites from companies like Planet Labs, Umbra, and HawkEye 360; GPS; miniature CubeSats for education and research; and military/defense satellites.

Loading next visibility...
Identifier
41884, 2016-078A
Orbit
LEO
Country
Flag of USUS
Related business
Manufacturer
SST-US
Mission
Extended mission Civil Science
Bus & Motor
CYGNSS, Unknown motor
Mass
29 kg wet, 29 kg dry
Launch date (UTC)
2016-12-15 (9 years ago)
Launch vehicle
PEGASUS XL
Launch site
Pegasus Launch, Eastern Range Air Space (ERAS)
Object type
Payload
Rocket body
Debris
Shape & HBR
Half Hex Cyl + 2 Pan, 0.8 m
Radar Cross Section
0.450 m², Medium (>0.1 m² and < 1m²)

Expand to show TLE details & history
Last TLE update: 23 hours ago

TLE from 23 hours ago
0 CYGFM05
1 41884U 16078A   25242.05805777  .00019317  00000-0  43117-3 0  9991
2 41884  34.9615   8.1808 0009334 286.8460  73.1236 15.42578465483568
Epoch: 2025-08-30T01:23Z
TLE epoch observation values (Epoch: 2025-08-30T01:23:36.191Z)
Latitude
-0.00003°
Longitude
8.78216°
Altitude
435.555 km
Speed
7.654 km/s
True Right ascension
00h 32m 43s
True Declination
0° 00' 00"
Sunlit
Object was in full shadow at epoch
Visualization orbit readout
Latitude
Unknown
Longitude
Unknown
Altitude
Unknown
Speed
Unknown
Apparent Right ascension
Unknown
Apparent Declination
Unknown
Sunlit
N/A
Visualization observer readout
Local Sidereal Time
15:38:30
Azimuth
Unknown
Elevation
Unknown
Doppler factor
Unknown
Orbital elements
Apogee altitude
448.152 km
Perigee altitude
435.421 km
Semi-major axis
6,819.924 km
Eccentricity
0.00093
Inclination
34.9615°
RAAN
8.1808°
Arg. of periapsis
286.846°
True anomaly
73.22599°
Mean anomaly
73.1236°
Eccentric anomaly
73.17479°
Mean motion
3.85366 °/min
Orbital period
93.42 mins
BSTAR
0.00043117
Loading maneuver chart data...
Computing Atmospheric mass density...
Loading historical data...
Loading historical data...
Loading historical data...
Loading historical data...
Loading historical data...
Loading historical data...
Loading historical data...

Documentation

Showing up to 5 results
|